Location: Unspecified
(51.5147°N, 7.4673°E)
Time: 17:27:43
(UTC+01:00)

Vanguard 1 - Pass Details

Date: 21 February 2026
Orbit: 653 x 3818 km, 34.2° (Epoch: 5 March)

Event Time Altitude Azimuth Distance (km) Brightness Sun altitude
Rises 19:35:23 0° 266° (W) 5,731 15.7 -16.1°
Reaches altitude 10° 19:39:06 10° 257° (WSW) 5,121 14.9 -16.7°
Maximum altitude 19:52:46 34° 200° (SSW) 4,528 13.5 -18.8°
Drops below altitude 10° 20:11:25 10° 146° (SE) 6,911 14.0 -21.7°
Enters shadow 20:15:09 - 141° (SE) 7,510 14.1 -22.2°
